Regional Weather Roundup
Issued by NWS Goodland, KS

Home | Current Version | Previous Version | Text Only | Print | Product List | Glossary Off
Versions: 1 2 3 4 5 6 7 8 9 10 11 12 13 14 15 16 17 18 19 20 21 22 23 24 25 26 27 28 29 30 31 32 33 34 35 36 37 38 39 40 41 42 43 44 45 46 47 48 49 50

000
ASUS43 KGLD 230508
RWRGLD

GOODLAND FORECAST AREA HOURLY WEATHER ROUNDUP
NATIONAL WEATHER SERVICE GOODLAND KS
1100 PM MDT FRI SEP 22 2017

...OFFICIAL OBSERVATIONS...

CITY           SKY/WX    TMP DP  RH WIND       PRES   REMARKS
GOODLAND KS    CLEAR     74  60  61 S18       29.83R
HILL CITY KS   PTCLDY    80  63  55 S15G23    29.84R
IMPERIAL NEB   PTCLDY    73  52  47 VRB7      29.80R
MCCOOK NEB     PTCLDY    80  62  54 S20G33    29.78S
AKRON CO       CLOUDY    58  45  62 N12       29.86R
BURLINGTON CO  PTCLDY    73  59  61 S18       29.85R
LIMON CO         N/A    N/A N/A N/A MISG      29.93R
$$

...UNOFFICIAL OBSERVATIONS...

CITY           SKY/WX    TMP DP  RH WIND       PRES   REMARKS
LENORA KS        N/A     79  32  18 MISG        N/A
NORTON KS      CLEAR     79  55  44 SE17      29.82S
SHARON SPRINGS   N/A     73  60  64 SE14        N/A
KIT CARSON CO    N/A     73  60  63 MISG        N/A
YUMA CO        FAIR      61  34  36 N10       29.83R
$$




USA.gov is the U.S. government's official web portal to all federal, state and local government web resources and services.